TimeAKST,TemperatureF,Dew PointF,Humidity,Sea Level PressureIn,VisibilityMPH,Wind Direction,Wind SpeedMPH,Gust SpeedMPH,PrecipitationIn,Events,Conditions,WindDirDegrees,DateUTC
12:53 AM,30.9,30.0,96,29.54,9.0,North,20.7,-,0.00,,Overcast,10,2014-01-16 09:53:00
1:53 AM,30.9,30.0,96,29.52,6.0,North,12.7,-,0.00,Snow,Light Snow,360,2014-01-16 10:53:00
3:53 AM,33.1,30.9,92,29.42,10.0,North,12.7,-,N/A,,Overcast,360,2014-01-16 12:53:00
4:34 AM,30.2,30.2,100,29.41,2.5,NNE,15.0,-,0.00,Snow,Light Snow,30,2014-01-16 13:34:00
4:40 AM,30.2,30.2,100,29.41,1.8,NNE,17.3,-,0.00,Snow,Light Snow,20,2014-01-16 13:40:00
4:53 AM,30.9,30.0,96,29.42,1.8,NNE,12.7,-,0.00,Snow,Light Snow,20,2014-01-16 13:53:00
5:07 AM,30.2,30.2,100,29.41,2.0,NNE,15.0,-,0.00,Snow,Light Snow,20,2014-01-16 14:07:00
5:30 AM,30.2,30.2,100,29.40,3.0,NNE,13.8,-,0.00,Snow,Light Snow,20,2014-01-16 14:30:00
5:53 AM,30.9,30.0,96,29.42,3.0,NNE,15.0,-,0.00,Snow,Light Snow,20,2014-01-16 14:53:00
6:35 AM,30.2,30.2,100,29.40,9.0,NE,12.7,-,0.00,,Overcast,40,2014-01-16 15:35:00
6:49 AM,30.2,30.2,100,29.40,10.0,NE,12.7,-,0.00,,Mostly Cloudy,40,2014-01-16 15:49:00
6:53 AM,30.0,30.0,100,29.40,10.0,NE,12.7,-,0.00,,Mostly Cloudy,40,2014-01-16 15:53:00
6:56 AM,30.2,30.2,100,29.39,10.0,NE,11.5,-,N/A,,Mostly Cloudy,50,2014-01-16 15:56:00
7:36 AM,30.2,30.2,100,29.39,10.0,NNE,8.1,-,N/A,,Overcast,20,2014-01-16 16:36:00
7:53 AM,30.9,30.9,100,29.41,10.0,North,4.6,-,N/A,,Overcast,10,2014-01-16 16:53:00
8:53 AM,30.9,30.9,100,29.46,10.0,Calm,Calm,-,N/A,,Overcast,0,2014-01-16 17:53:00
9:53 AM,32.0,32.0,100,29.53,10.0,SW,3.5,-,N/A,,Overcast,230,2014-01-16 18:53:00
10:09 AM,32.0,32.0,100,29.52,8.0,Calm,Calm,-,N/A,,Overcast,0,2014-01-16 19:09:00
10:53 AM,32.0,32.0,100,29.56,7.0,Calm,Calm,-,N/A,,Overcast,0,2014-01-16 19:53:00
11:06 AM,32.0,32.0,100,29.53,0.2,Calm,Calm,-,N/A,Fog,Fog,0,2014-01-16 20:06:00
11:53 AM,32.0,32.0,100,29.57,0.2,Calm,Calm,-,N/A,Fog,Fog,0,2014-01-16 20:53:00
12:38 PM,32.0,32.0,100,29.58,0.5,Calm,Calm,-,N/A,Fog,Fog,0,2014-01-16 21:38:00
12:53 PM,32.0,32.0,100,29.57,0.5,Calm,Calm,-,N/A,Fog,Fog,0,2014-01-16 21:53:00
1:20 PM,32.0,32.0,100,29.59,1.0,North,-9999.0,-,N/A,,Overcast,0,2014-01-16 22:20:00
1:53 PM,30.9,30.9,100,29.60,0.5,NE,3.5,-,N/A,Fog,Light Freezing Fog,40,2014-01-16 22:53:00
2:53 PM,30.9,30.9,100,29.62,0.2,NE,4.6,-,N/A,Fog,Light Freezing Fog,40,2014-01-16 23:53:00
3:37 PM,32.0,32.0,100,29.62,0.8,NNE,6.9,-,N/A,,Mist,30,2014-01-17 00:37:00
3:44 PM,32.0,32.0,100,29.62,1.0,NNE,8.1,-,N/A,,Mist,20,2014-01-17 00:44:00
3:53 PM,30.9,30.9,100,29.64,1.0,NNE,5.8,-,N/A,,Overcast,30,2014-01-17 00:53:00
4:19 PM,30.2,30.2,100,29.65,0.8,NE,5.8,-,N/A,,Overcast,50,2014-01-17 01:19:00
4:39 PM,30.2,30.2,100,29.67,0.2,NE,5.8,-,N/A,Fog,Light Freezing Fog,40,2014-01-17 01:39:00
4:48 PM,30.2,30.2,100,29.68,0.8,NNE,9.2,-,N/A,Fog,Light Freezing Fog,30,2014-01-17 01:48:00
4:53 PM,30.9,30.9,100,29.68,0.5,NNE,8.1,-,N/A,Fog,Light Freezing Fog,30,2014-01-17 01:53:00
5:53 PM,30.0,30.0,100,29.68,3.0,NNE,8.1,-,N/A,,Overcast,30,2014-01-17 02:53:00
6:18 PM,30.2,30.2,100,29.68,1.8,NNE,9.2,-,N/A,,Overcast,20,2014-01-17 03:18:00
6:31 PM,30.2,30.2,100,29.69,3.0,NNE,8.1,-,N/A,,Overcast,20,2014-01-17 03:31:00
6:49 PM,30.2,30.2,100,29.69,10.0,NNE,8.1,-,N/A,,Overcast,20,2014-01-17 03:49:00
6:53 PM,30.0,30.0,100,29.69,10.0,NNE,10.4,-,N/A,,Overcast,20,2014-01-17 03:53:00
7:53 PM,30.0,30.0,100,29.69,10.0,NE,13.8,-,N/A,,Overcast,40,2014-01-17 04:53:00
8:53 PM,30.0,30.0,100,29.67,10.0,NNE,16.1,-,N/A,,Overcast,20,2014-01-17 05:53:00
9:53 PM,30.9,30.9,100,29.65,10.0,North,19.6,-,N/A,,Overcast,10,2014-01-17 06:53:00
10:53 PM,30.9,30.9,100,29.60,10.0,North,24.2,-,0.01,,Mostly Cloudy,10,2014-01-17 07:53:00
11:08 PM,30.2,30.2,100,29.58,10.0,NNE,26.5,31.1,N/A,,Scattered Clouds,20,2014-01-17 08:08:00
11:53 PM,30.9,30.9,100,29.56,10.0,NNE,23.0,-,N/A,,Clear,20,2014-01-17 08:53:00